Regional Weather Roundup
Issued by NWS Newport/Morehead, NC

Current Version | Previous Version | Graphics & Text | Print | Product List | Glossary Off
Versions: 1 2 3 4 5 6 7 8 9 10 11 12 13 14 15 16 17 18 19 20 21 22 23 24 25 26 27 28 29 30 31 32 33 34 35 36 37 38 39 40 41 42 43 44 45 46 47 48 49 50

000
ASUS42 KMHX 231824
RWRMHX
WEATHER ROUNDUP FOR EASTERN NORTH CAROLINA
NATIONAL WEATHER SERVICE NEWPORT/MOREHEAD CITY NC
200 PM EDT SUN APR 23 2017

NOTE: "FAIR" INDICATES FEW OR NO CLOUDS BELOW 12,000 FEET
WITH NO SIGNIFICANT WEATHER AND/OR OBSTRUCTIONS TO VISIBILITY

NCZ015>017-031-032-045>047-102-103-231900-
NORTH COAST

CITY           SKY/WX    TMP DP  RH WIND       PRES   REMARKS
EDENTON        CLOUDY    59  55  85 NE8       30.05F
ELIZABETH CITY CLOUDY    59  53  80 NE17      30.06S
KITTY HAWK     CLOUDY    56  53  88 N6G18     30.02F
MANTEO         CLOUDY    57  52  84 NE20G25   30.03F

$$

NCZ045>047-081-094-103-104-231900-
CENTRAL COAST

CITY           SKY/WX    TMP DP  RH WIND       PRES   REMARKS
FRISCO         CLOUDY    65  57  75 NE13G25   29.98F HAZE

$$

NCZ095-097-098-100-101-231900-
SOUTHERN COAST

CITY           SKY/WX    TMP DP  RH WIND       PRES   REMARKS
BEAUFORT       CLOUDY    66  61  84 NE12      29.97S
CEDAR ISLAND   NOT AVBL
JACKSONVILLE   RAIN      62  61  96 NE8       29.97R FOG
PINEY ISLAND   CLOUDY   N/A N/A N/A NE16G24   29.98F
WILMINGTON     LGT RAIN  64  63  96 NE12      29.95F


$$

NCZ011>013-027>030-043-044-078>080-089-090>093-098-231900-
COASTAL PLAIN

CITY           SKY/WX    TMP DP  RH WIND       PRES   REMARKS
AHOSKIE          N/A     56  51  83 NE8       30.05F
CLINTON        DRIZZLE   58  57  96 NE6       29.98F
ELIZABETHTOWN  LGT RAIN  60  58  93 CALM      29.95F
GOLDSBORO      LGT RAIN  57  57 100 NE8       29.99S
GREENVILLE     CLOUDY    59  54  82 NE12      30.03F
HAVELOCK       NOT AVBL
KENANSVILLE    LGT RAIN  59  55  88 NE6       29.98F
KINSTON        CLOUDY    59  55  88 NE13      30.01F
NEW BERN       CLOUDY    60  58  92 NE12      30.01S
RICHLANDS      CLOUDY    60  57  89 NE14      29.98F
ROCKY MOUNT    CLOUDY    57  52  83 NE10      30.03F
WASHINGTON     CLOUDY    58  54  87 NE12G17   30.02S
WHITEVILLE     CLOUDY    62  58  89 NE10      29.93F

$$

AMZ130-135-150-152-154-156-158-170-250-252-270-ANZ085-086-088-633-658-670-231900-
MARINE OBSERVATIONS

STATION/POSITION TIME  TEMP    WIND        PRES    WAVE   SWELL
                       AIR SEA DIR/SP/G            HT/PER HT/PER
                 (UTC) (F)     (DEG/KT/KT) (MB)    (FT/S) (FT/S)
CHESAPEAKE LIGHT NOT AVBL
64 E VA BEACH    1750   55 54   30/ 14/ 17 1017.5    5/11   3/11
DUCK             1800   55 63   20/ 21/ 25 1016.6
2 E DUCK         1800      60                N/A     5/11   2/11
OREGON INLET     1800   56 59   10/ 16/ 20 1016.1
13E OREGON INLT  1748      57                N/A     5/12   5/12
HATTERAS CG      1800   62 68   30/ 14/ 20 1015.3
DIAMOND BUOY     1750   66 75   20/ 17/ 21 1014.4    5/11   3/11
CAPE LOOKOUT     1800   64      40/ 20/ 24 1014.4
BEAUFORT LAB     1800   65 67   50/ 10/ 14 1013.9
30 SE NEW RVR IN 1808   65      60/ 17/ 23 1013.8
30 SE NEW RVR IN 1743      71                N/A     5/ 5   2/11
27 SE WRIGHTSVLE 1808   68 71   90/ 17/ 25 1013.2
5 SE WRIGHTSVLE  1808   66 68   80/ 16/ 23 1013.7
225 S CAPE HAT   1750   73 75  170/ 10/ 12 1014.8    4/11   3/11
41 SE CHARLESTON 1810   75 75  160/ 10/ 14 1011.1

$$




USA.gov is the U.S. government's official web portal to all federal, state and local government web resources and services.